Location: Selfs
(33.6923°N, 95.9144°W)
Time: 23:06:06
(UTC+00:00)

Daily predictions for brighter satellites

Satellite Brightness Start Highest point End
(mag) Time Altitude Azimuth Time Altitude Azimuth Time Altitude Azimuth
Cosmos 2082 Rocket 4.0 12:06:06 12° NNW 12:06:06 12° NNW 12:07:05 10° NNW
BREEZE-M DEB (TANK) 2.4 12:00:55 10° SW 12:04:23 84° NW 12:06:43 10° NE
Cosmos 1626 Rocket 4.5 12:00:58 10° S 12:05:15 52° E 12:09:32 10° NNE
Cosmos 1892 Rocket 4.0 12:05:19 10° SSW 12:09:19 36° W 12:13:22 10° NNW
SL-16 R/B 2.6 12:03:49 10° NNW 12:09:28 67° ENE 12:15:04 10° SSE
SWAS 4.3 12:07:26 17° NNW 12:10:27 62° WSW 12:14:25 10° S
Cosmos 1937 Rocket 3.5 12:08:16 10° NNW 12:13:17 57° WSW 12:18:17 10° S
Cosmos 858 Rocket 4.4 12:08:59 10° NNW 12:14:10 84° WSW 12:19:21 10° SSE
ARIANE 5 R/B 4.4 12:18:05 10° NNE 12:22:51 36° E 12:27:35 10° SSE
COSMO-SKYMED 1 2.6 12:19:33 10° S 12:23:32 49° W 12:27:32 10° NNW
OAO 2 Rocket 3.5 12:21:17 10° WSW 12:26:28 75° SSE 12:31:33 10° E
Cosmos-2242 2.9 12:23:50 10° N 12:28:02 74° W 12:32:11 10° S
Cosmos 1980 Rocket 3.8 12:28:37 12° W 12:30:01 13° W 12:32:25 10° WSW
Cosmos 1092 Rocket 4.3 12:24:16 10° SSW 12:30:12 43° W 12:36:07 10° N
IRIDIUM 114 4.3 12:26:18 10° S 12:31:31 87° W 12:36:45 10° N
Cosmos 1814 Rocket 4.1 12:26:36 10° SSW 12:31:41 55° WNW 12:36:51 10° N
Cosmos 2278 3.7 12:27:31 10° NNW 12:33:11 88° WSW 12:38:48 10° SSE
BREEZE-M DEB (TANK) 4.4 12:31:21 10° NNW 12:34:26 27° NNE 12:41:18 10° E
Cosmos 1553 Rocket 4.2 12:29:33 10° N 12:35:59 81° E 12:42:22 10° S
ATLAS 2AS CENTAUR R/B 2.9 12:29:29 10° SSW 12:36:38 84° ESE 12:43:36 10° NNE
CZ-2D R/B 3.8 12:35:11 10° NNE 12:38:16 49° E 12:41:20 10° S
Cosmos 405 Rocket 2.4 12:36:05 10° SSW 12:39:13 48° W 12:42:24 10° N
IRIDIUM 103 4.3 12:35:30 10° S 12:40:40 70° W 12:45:54 10° N
Centaur AC-119 4.2 12:35:41 10° WSW 12:40:42 36° S 12:45:12 10° ESE
CBERS-1 4.1 12:37:30 10° N 12:42:31 59° WNW 12:47:28 10° SSW
CORIOLIS 4.3 12:37:17 10° NNE 12:42:42 84° E 12:48:07 10° SSW
Cosmos 1602 Rocket 3.9 12:39:06 10° S 12:43:30 75° E 12:47:56 10° N
COSMOS 2455 3.9 12:38:59 10° NW 12:43:53 26° WSW 12:48:45 10° SSW
CZ-3 R/B 3.8 12:35:08 10° W 12:45:46 22° SW 12:50:58 10° S
Tiangong -1.5 12:46:50 10° WNW 12:49:58 48° SSW 12:53:05 10° SE
Cosmos 2058 Rocket 3.7 12:46:47 10° NNW 12:50:47 34° W 12:54:45 10° SSW
OAO 3 Copernicus 4.3 12:46:23 10° W 12:51:24 77° N 12:56:25 10° E
IGS 5A 3.4 23:35:12 10° SSE 23:39:08 89° WSW 23:43:06 10° NNW
Cosmos 1933 3.6 23:40:15 10° SSE 23:43:52 42° E 23:47:30 10° NNE
SJ-12 4.3 23:43:21 10° SE 23:46:46 33° ENE 23:50:11 10° N
Cosmos 2208 Rocket 3.9 23:43:32 10° NNW 23:48:42 69° ENE 23:53:52 10° SSE
Cosmos 1484 Rocket 3.9 23:45:22 10° S 23:48:43 43° W 23:52:05 10° NNW
BlueWalker 3 2.5 23:45:46 10° NNW 23:49:04 32° NE 23:52:21 10° ESE
Cosmos 1980 Rocket 3.1 23:44:32 10° SSE 23:49:22 30° ESE 23:54:11 10° NE
Cosmos 1607 4.4 23:43:49 10° NNW 23:49:36 38° NE 23:55:25 10° ESE
Intercosmos 24 4.3 23:47:11 10° NNW 23:50:42 60° W 23:54:23 10° S
SAR-Lupe-3 4.5 23:48:39 10° NE 23:50:56 31° E 23:53:12 10° SSE
Hubble Space Telescope 2.8 23:48:55 10° SSW 23:51:21 16° SSE 23:53:47 10° ESE
CZ-4C R/B 3.6 23:45:12 10° NNW 23:52:00 36° NE 23:59:57 10° ESE
Cosmos 1626 Rocket 4.2 23:50:05 10° NNW 23:54:20 60° W 23:58:32 10° S
Cosmos 1606 Rocket 3.6 23:50:58 10° S 23:55:14 56° E 23:59:34 10° NNE
